This demonstration page uses our WeatherBlox Daily Observations layout. Learn more.

41.55636, -103.73856

Hourly Observations for January 23, 2019

Temp ( °F °C ) Dew Point ( °F °C ) Humidity (%) Winds ( mph kmh ) Pressure ( in mb ) Visibility ( mi km ) Precip ( " mm )
12:58 am 00:58 Mostly Clear 14 -10.1 10 -12.1 85 85 W 9 15 30.29 1026 10 16.0934 N/A
1:58 am 01:58 Clear 10 -12.2 8 -13.6 89 89 WNW 12 19 30.31 1026 10 16.0934 N/A
2:58 am 02:58 Clear 15 -9.4 8 -13.1 75 75 WNW 14 22 30.25 1025 10 16.0934 N/A
3:58 am 03:58 Mostly Cloudy 18 -7.7 10 -12.5 69 69 WNW 13 20 30.24 1024 10 16.0934 N/A
4:58 am 04:58 Mostly Clear 17 -8.1 8 -13.1 68 68 W 15 24 30.22 1023 10 16.0934 N/A
5:58 am 05:58 Clear 18 -7.6 9 -12.9 66 66 W 17 28 30.22 1023 10 16.0934 N/A
6:58 am 06:58 Clear 21 -6 10 -12.4 61 61 WNW 22 35 30.19 1022 10 16.0934 N/A
7:58 am 07:58 Clear 21 -6.2 9 -12.6 61 61 WNW 26 43 30.24 1024 10 16.0934 N/A
8:58 am 08:58 Clear 21 -6 9 -12.9 59 59 WNW 26 43 30.23 1024 10 16.0934 N/A
9:58 am 09:58 Clear 20 -6.6 9 -12.9 61 61 WNW 26 43 30.25 1024 10 16.0934 N/A
10:58 am 10:58 Clear 19 -7 9 -12.9 63 63 WNW 24 39 30.17 1022 10 16.0934 N/A
11:58 am 11:58 Clear 20 -6.8 9 -12.9 62 62 WNW 26 43 30.17 1022 10 16.0934 N/A
12:58 pm 12:58 Clear 21 -6.2 8 -13.2 58 58 WNW 25 41 30.19 1022 10 16.0934 N/A
1:58 pm 13:58 Clear 20 -6.8 9 -12.7 63 63 WNW 25 41 30.19 1022 10 16.0934 N/A
2:58 pm 14:58 Sunny 23 -5.1 10 -12.2 58 58 WNW 33 54 30.15 1021 10 16.0934 N/A
3:58 pm 15:58 Sunny 25 -3.9 12 -10.9 59 59 WNW 26 43 30.13 1020 10 16.0934 N/A
4:58 pm 16:58 Sunny 28 -2.1 14 -10 55 55 WNW 26 43 30.1 1019 10 16.0934 N/A
5:58 pm 17:58 Mostly Cloudy 31 -0.8 16 -8.9 55 55 NW 30 48 30.08 1019 10 16.0934 N/A
6:58 pm 18:58 Mostly Sunny 31 -0.3 17 -8.4 55 55 NW 26 43 30.04 1017 10 16.0934 N/A
7:58 pm 19:58 Mostly Cloudy 31 -0.3 18 -7.6 58 58 NW 26 43 30.01 1016 10 16.0934 N/A
9:58 pm 21:58 Mostly Cloudy 31 -0.8 19 -7.4 61 61 NW 26 43 30.01 1016 10 16.0934 N/A
10:58 pm 22:58 Mostly Cloudy 30 -0.9 18 -7.7 60 60 NW 25 41 30.02 1017 10 16.0934 N/A
11:58 pm 23:58 Mostly Cloudy 29 -1.8 18 -8 63 63 NW 23 37 30.04 1017 10 16.0934 N/A

Powered by AerisWeather